QPF
0.02 0.02 0.02 0.03 0.03 0.03 0.03 0.03 0.03 0.03 0.03 0.04 0.05 0.04 0.03 0.02 0.03 0.04 0.04 0.03 0.03 0.04 0.04 0.05 0.05 0.05 0.06 0.08 0.12 0.13 0.10 0.08 0.06 0.06 0.05 0.04 0.03 0.03 0.02 0.02 0.03 0.02 0.01
0.02 0.02 0.03 0.03 0.04 0.05 0.04 0.04 0.03 0.04 0.05 0.05 0.04 0.04 0.04 0.03 0.03 0.03 0.04 0.04 0.03 0.04 0.05 0.05 0.05 0.05 0.05 0.07 0.07 0.07 0.06 0.06 0.06 0.05 0.05 0.04 0.03 0.02 0.01 0.02 0.02 0.01 0.01
0.01 0.02 0.03 0.03 0.05 0.05 0.03 0.03 0.06 0.09 0.07 0.06 0.06 0.06 0.05 0.03 0.03 0.03 0.03 0.05 0.04 0.04 0.05 0.05 0.05 0.05 0.05 0.05 0.06 0.06 0.06 0.06 0.06 0.05 0.05 0.03 0.03 0.02 0.01 0.01 0.01 0.01 0.01
0.01 0.02 0.03 0.04 0.05 0.05 0.06 0.09 0.09 0.08 0.07 0.06 0.06 0.05 0.04 0.03 0.04 0.04 0.04 0.05 0.04 0.04 0.05 0.06 0.08 0.09 0.08 0.06 0.06 0.05 0.05 0.05 0.05 0.06 0.05 0.03 0.03 0.03 0.02 0.02 0.01 0.01 0.01
0.01 0.02 0.03 0.06 0.12 0.14 0.18 0.14 0.08 0.06 0.06 0.06 0.04 0.03 0.03 0.04 0.05 0.05 0.05 0.05 0.05 0.05 0.07 0.09 0.12 0.12 0.12 0.10 0.08 0.08 0.09 0.08 0.07 0.06 0.05 0.04 0.03 0.03 0.03 0.03 0.02 0.02 0.02
0.02 0.02 0.04 0.07 0.07 0.08 0.10 0.08 0.06 0.04 0.04 0.05 0.05 0.04 0.04 0.05 0.06 0.05 0.05 0.04 0.04 0.06 0.08 0.09 0.11 0.11 0.14 0.16 0.15 0.12 0.10 0.10 0.09 0.07 0.06 0.05 0.04 0.03 0.03 0.03 0.03 0.03 0.03
0.01 0.03 0.06 0.08 0.07 0.06 0.05 0.05 0.05 0.05 0.05 0.05 0.05 0.05 0.05 0.05 0.05 0.07 0.07 0.04 0.02 0.03 0.05 0.05 0.05 0.05 0.06 0.06 0.06 0.07 0.06 0.07 0.07 0.07 0.07 0.08 0.06 0.04 0.04 0.04 0.04 0.04 0.03
0.02 0.05 0.07 0.07 0.05 0.03 0.02 0.03 0.05 0.06 0.06 0.06 0.05 0.04 0.05 0.04 0.04 0.04 0.05 0.05 0.04 0.04 0.04 0.04 0.04 0.04 0.04 0.03 0.03 0.04 0.03 0.03 0.03 0.04 0.05 0.05 0.06 0.06 0.06 0.04 0.05 0.05 0.03
0.04 0.03 0.04 0.04 0.03 0.02 0.02 0.02 0.04 0.05 0.05 0.06 0.06 0.06 0.06 0.06 0.05 0.04 0.04 0.05 0.04 0.03 0.03 0.03 0.03 0.04 0.05 0.04 0.03 0.03 0.03 0.03 0.03 0.02 0.03 0.03 0.04 0.05 0.05 0.05 0.05 0.05 0.04
0.04 0.03 0.03 0.03 0.02 0.02 0.02 0.03 0.05 0.05 0.06 0.06 0.06 0.07 0.07 0.06 0.05 0.04 0.03 0.03 0.02 0.02 0.02 0.02 0.02 0.03 0.04 0.03 0.03 0.03 0.02 0.02 0.02 0.02 0.01 0.02 0.03 0.05 0.06 0.06 0.04 0.04 0.04
0.03 0.02 0.02 0.01 0.01 0.03 0.03 0.06 0.08 0.09 0.09 0.09 0.08 0.07 0.07 0.06 0.05 0.03 0.02 0.02 0.01 0.01 0.01 0.01 0.01 0.02 0.02 0.02 0.01 0.01 0.01 0.01 0.01 0.01 0.01 0.01 0.01 0.03 0.05 0.06 0.05 0.04 0.04
0.03 0.02 0.01 0.01 0.01 0.02 0.04 0.06 0.06 0.09 0.12 0.13 0.14 0.15 0.14 0.09 0.05 0.03 0.01 0.01 0.01 0.01 0.01 0.01 0.01 0.02 0.02 0.01 0.01 0.01 0.01 0.01 0.01 0.01 0.01 0.01 0.01 0.02 0.04 0.05 0.05 0.03 0.02
0.03 0.02 0.01 0.01 0.01 0.02 0.03 0.04 0.03 0.07 0.13 0.18 0.16 0.13 0.11 0.09 0.06 0.03 0.02 0.01 0.01 0.01 0.01 0.02 0.02 0.03 0.01 0.01 0.01 0.01 0.01 0.01 0.01 0.01 0.01 0.00 0.01 0.02 0.03 0.05 0.05 0.04 0.03
0.03 0.02 0.02 0.02 0.02 0.03 0.04 0.06 0.08 0.09 0.09 0.07 0.07 0.06 0.05 0.05 0.04 0.03 0.02 0.01 0.02 0.02 0.02 0.01 0.03 0.02 0.01 0.00 0.01 0.01 0.01 0.01 0.01 0.01 0.01 0.01 0.02 0.02 0.02 0.04 0.05 0.04 0.04
0.02 0.02 0.02 0.02 0.03 0.03 0.05 0.06 0.07 0.07 0.07 0.06 0.06 0.05 0.04 0.05 0.05 0.05 0.03 0.02 0.02 0.02 0.03 0.02 0.03 0.02 0.01 0.00 0.00 0.01 0.00 0.01 0.01 0.01 0.01 0.01 0.01 0.03 0.03 0.03 0.04 0.05 0.06
0.02 0.03 0.04 0.03 0.02 0.02 0.02 0.03 0.03 0.04 0.06 0.08 0.06 0.04 0.05 0.05 0.05 0.03 0.03 0.02 0.01 0.02 0.02 0.03 0.02 0.01 0.01 0.01 0.01 0.01 0.01 0.01 0.01 0.01 0.01 0.01 0.02 0.02 0.02 0.03 0.03 0.03 0.05
0.02 0.03 0.05 0.04 0.03 0.02 0.02 0.03 0.04 0.04 0.05 0.07 0.07 0.06 0.05 0.03 0.03 0.02 0.02 0.01 0.01 0.01 0.02 0.02 0.02 0.02 0.02 0.02 0.02 0.02 0.02 0.01 0.01 0.00 0.00 0.01 0.01 0.02 0.02 0.02 0.02 0.02 0.03
0.02 0.03 0.05 0.07 0.05 0.04 0.04 0.04 0.05 0.05 0.05 0.07 0.08 0.08 0.07 0.05 0.04 0.03 0.02 0.02 0.02 0.02 0.02 0.02 0.03 0.03 0.04 0.04 0.04 0.03 0.03 0.02 0.02 0.01 0.01 0.01 0.01 0.01 0.02 0.02 0.02 0.02 0.02
0.02 0.02 0.04 0.06 0.05 0.04 0.05 0.06 0.05 0.04 0.05 0.07 0.09 0.09 0.11 0.09 0.05 0.04 0.03 0.03 0.02 0.02 0.02 0.02 0.03 0.03 0.03 0.03 0.04 0.03 0.02 0.02 0.02 0.02 0.01 0.01 0.02 0.03 0.03 0.03 0.02 0.02 0.02
0.02 0.01 0.02 0.03 0.03 0.04 0.05 0.05 0.05 0.04 0.04 0.06 0.08 0.10 0.11 0.10 0.08 0.05 0.04 0.03 0.03 0.04 0.04 0.04 0.03 0.02 0.03 0.03 0.03 0.03 0.03 0.02 0.02 0.03 0.03 0.04 0.04 0.05 0.05 0.04 0.04 0.03 0.02
0.02 0.01 0.01 0.01 0.02 0.03 0.04 0.05 0.05 0.04 0.04 0.05 0.09 0.10 0.12 0.13 0.11 0.09 0.08 0.06 0.04 0.04 0.04 0.03 0.03 0.02 0.02 0.02 0.03 0.03 0.03 0.03 0.02 0.02 0.03 0.04 0.05 0.05 0.05 0.05 0.04 0.04 0.04
0.03 0.03 0.02 0.02 0.03 0.03 0.03 0.03 0.03 0.03 0.03 0.03 0.05 0.06 0.08 0.10 0.13 0.12 0.12 0.11 0.07 0.04 0.03 0.03 0.03 0.02 0.02 0.02 0.02 0.02 0.02 0.02 0.02 0.02 0.03 0.02 0.02 0.03 0.03 0.04 0.04 0.05 0.05
0.04 0.04 0.04 0.06 0.05 0.04 0.03 0.02 0.02 0.02 0.01 0.02 0.02 0.03 0.03 0.04 0.08 0.14 0.13 0.12 0.09 0.06 0.05 0.04 0.04 0.03 0.02 0.02 0.01 0.01 0.01 0.01 0.01 0.02 0.03 0.03 0.02 0.02 0.01 0.02 0.02 0.03 0.03
0.04 0.04 0.04 0.06 0.09 0.07 0.05 0.04 0.02 0.01 0.01 0.02 0.02 0.02 0.02 0.02 0.03 0.06 0.10 0.12 0.12 0.09 0.05 0.04 0.03 0.02 0.02 0.02 0.01 0.01 0.01 0.01 0.01 0.01 0.02 0.02 0.02 0.01 0.01 0.01 0.01 0.01 0.01
0.03 0.04 0.04 0.05 0.07 0.09 0.08 0.07 0.05 0.03 0.02 0.02 0.02 0.02 0.03 0.04 0.04 0.03 0.04 0.06 0.09 0.09 0.06 0.04 0.02 0.01 0.01 0.01 0.01 0.02 0.02 0.03 0.02 0.02 0.01 0.01 0.01 0.01 0.00 0.01 0.01 0.00 0.01
0.04 0.05 0.06 0.05 0.05 0.08 0.09 0.07 0.05 0.04 0.05 0.03 0.01 0.01 0.02 0.04 0.04 0.03 0.03 0.03 0.04 0.04 0.04 0.03 0.02 0.02 0.01 0.01 0.01 0.01 0.02 0.03 0.05 0.04 0.03 0.03 0.02 0.02 0.01 0.01 0.01 0.01 0.01
MSLP
1003.07 1003.63 1004.30 1005.00 1005.66 1006.25 1006.77 1007.24 1007.68 1008.12 1008.59 1009.10 1009.63 1010.16 1010.67 1011.12 1011.51 1011.82 1012.07 1012.28 1012.47 1012.69 1012.95 1013.28 1013.68 1014.15 1014.66 1015.21 1015.76 1016.29 1016.79 1017.24 1017.64 1017.98 1018.26 1018.48 1018.64 1018.75 1018.80 1018.81 1018.80 1018.78 1018.77
1002.30 1002.89 1003.62 1004.39 1005.15 1005.83 1006.42 1006.95 1007.43 1007.90 1008.38 1008.90 1009.44 1010.00 1010.53 1011.03 1011.45 1011.81 1012.10 1012.34 1012.57 1012.81 1013.10 1013.45 1013.86 1014.32 1014.83 1015.37 1015.90 1016.42 1016.92 1017.37 1017.78 1018.14 1018.45 1018.71 1018.91 1019.05 1019.13 1019.17 1019.16 1019.12 1019.08
1001.32 1001.94 1002.73 1003.61 1004.49 1005.30 1006.02 1006.65 1007.21 1007.74 1008.26 1008.80 1009.35 1009.91 1010.46 1010.97 1011.42 1011.81 1012.14 1012.43 1012.70 1012.99 1013.30 1013.65 1014.05 1014.50 1014.97 1015.46 1015.94 1016.42 1016.87 1017.30 1017.71 1018.08 1018.42 1018.73 1018.98 1019.18 1019.32 1019.39 1019.41 1019.38 1019.31
1000.28 1000.90 1001.76 1002.74 1003.75 1004.71 1005.58 1006.35 1007.02 1007.63 1008.21 1008.77 1009.33 1009.89 1010.43 1010.94 1011.40 1011.82 1012.19 1012.52 1012.84 1013.16 1013.51 1013.87 1014.27 1014.68 1015.11 1015.53 1015.95 1016.36 1016.75 1017.14 1017.52 1017.89 1018.26 1018.60 1018.91 1019.17 1019.37 1019.49 1019.54 1019.53 1019.46
999.37 999.96 1000.84 1001.90 1003.02 1004.12 1005.14 1006.04 1006.83 1007.53 1008.16 1008.75 1009.32 1009.87 1010.40 1010.90 1011.36 1011.79 1012.19 1012.57 1012.94 1013.31 1013.69 1014.08 1014.47 1014.87 1015.25 1015.62 1015.97 1016.30 1016.63 1016.97 1017.31 1017.67 1018.04 1018.41 1018.76 1019.07 1019.32 1019.49 1019.58 1019.59 1019.52
998.78 999.30 1000.16 1001.23 1002.41 1003.59 1004.70 1005.71 1006.59 1007.37 1008.05 1008.67 1009.25 1009.79 1010.30 1010.79 1011.25 1011.69 1012.11 1012.53 1012.94 1013.37 1013.79 1014.22 1014.63 1015.02 1015.39 1015.72 1016.02 1016.30 1016.58 1016.86 1017.17 1017.50 1017.86 1018.23 1018.60 1018.94 1019.22 1019.42 1019.53 1019.55 1019.49
998.66 999.07 999.84 1000.85 1001.99 1003.17 1004.31 1005.35 1006.28 1007.10 1007.82 1008.46 1009.05 1009.58 1010.09 1010.56 1011.02 1011.47 1011.91 1012.36 1012.82 1013.29 1013.77 1014.24 1014.69 1015.11 1015.49 1015.82 1016.11 1016.36 1016.60 1016.85 1017.12 1017.42 1017.76 1018.11 1018.47 1018.80 1019.09 1019.30 1019.43 1019.46 1019.40
999.08 999.33 999.95 1000.81 1001.83 1002.91 1003.97 1004.97 1005.88 1006.70 1007.43 1008.08 1008.67 1009.22 1009.73 1010.21 1010.67 1011.13 1011.60 1012.08 1012.57 1013.09 1013.61 1014.14 1014.64 1015.11 1015.52 1015.88 1016.19 1016.45 1016.69 1016.92 1017.16 1017.43 1017.73 1018.05 1018.38 1018.69 1018.95 1019.16 1019.29 1019.33 1019.29
1000.02 1000.10 1000.50 1001.14 1001.94 1002.81 1003.71 1004.58 1005.41 1006.17 1006.88 1007.54 1008.14 1008.71 1009.24 1009.75 1010.23 1010.71 1011.20 1011.70 1012.22 1012.77 1013.34 1013.91 1014.47 1014.99 1015.46 1015.88 1016.23 1016.53 1016.78 1017.02 1017.25 1017.49 1017.75 1018.03 1018.31 1018.59 1018.83 1019.02 1019.14 1019.20 1019.18
1001.41 1001.29 1001.44 1001.79 1002.30 1002.90 1003.55 1004.22 1004.90 1005.57 1006.24 1006.88 1007.51 1008.11 1008.69 1009.24 1009.76 1010.27 1010.78 1011.29 1011.83 1012.40 1012.99 1013.60 1014.20 1014.77 1015.31 1015.78 1016.19 1016.54 1016.84 1017.09 1017.33 1017.55 1017.78 1018.02 1018.26 1018.49 1018.70 1018.87 1019.00 1019.08 1019.09
1003.12 1002.79 1002.67 1002.72 1002.89 1003.17 1003.53 1003.95 1004.44 1004.99 1005.58 1006.21 1006.86 1007.51 1008.15 1008.75 1009.33 1009.87 1010.40 1010.93 1011.47 1012.03 1012.62 1013.24 1013.86 1014.48 1015.06 1015.59 1016.06 1016.46 1016.80 1017.09 1017.33 1017.55 1017.76 1017.97 1018.17 1018.37 1018.56 1018.72 1018.86 1018.97 1019.03
1004.97 1004.46 1004.09 1003.83 1003.67 1003.62 1003.67 1003.83 1004.12 1004.52 1005.03 1005.64 1006.30 1006.99 1007.68 1008.35 1008.97 1009.55 1010.10 1010.63 1011.16 1011.70 1012.28 1012.88 1013.50 1014.13 1014.73 1015.30 1015.82 1016.27 1016.64 1016.96 1017.22 1017.45 1017.65 1017.84 1018.02 1018.21 1018.38 1018.56 1018.71 1018.86 1018.98
1006.83 1006.17 1005.58 1005.05 1004.60 1004.24 1004.00 1003.91 1003.99 1004.25 1004.67 1005.22 1005.88 1006.60 1007.33 1008.04 1008.71 1009.31 1009.87 1010.39 1010.90 1011.42 1011.96 1012.53 1013.13 1013.74 1014.35 1014.94 1015.47 1015.95 1016.35 1016.69 1016.98 1017.21 1017.42 1017.61 1017.79 1017.98 1018.16 1018.35 1018.54 1018.73 1018.90
1008.59 1007.82 1007.07 1006.33 1005.63 1005.02 1004.54 1004.22 1004.11 1004.22 1004.53 1005.02 1005.64 1006.35 1007.09 1007.81 1008.48 1009.10 1009.65 1010.15 1010.63 1011.12 1011.62 1012.16 1012.73 1013.32 1013.91 1014.49 1015.03 1015.52 1015.94 1016.30 1016.60 1016.85 1017.07 1017.28 1017.48 1017.68 1017.89 1018.11 1018.33 1018.56 1018.78
1010.19 1009.36 1008.49 1007.61 1006.74 1005.94 1005.27 1004.77 1004.48 1004.44 1004.62 1005.00 1005.55 1006.19 1006.89 1007.58 1008.22 1008.81 1009.34 1009.82 1010.28 1010.73 1011.20 1011.71 1012.25 1012.82 1013.40 1013.96 1014.50 1014.99 1015.41 1015.78 1016.10 1016.38 1016.63 1016.86 1017.09 1017.33 1017.57 1017.82 1018.08 1018.34 1018.60
1011.61 1010.75 1009.82 1008.86 1007.89 1006.97 1006.15 1005.50 1005.07 1004.86 1004.89 1005.13 1005.54 1006.07 1006.66 1007.26 1007.83 1008.37 1008.85 1009.30 1009.73 1010.17 1010.63 1011.13 1011.66 1012.22 1012.79 1013.35 1013.89 1014.37 1014.81 1015.19 1015.52 1015.83 1016.11 1016.38 1016.65 1016.93 1017.22 1017.51 1017.80 1018.09 1018.37
1012.85 1011.98 1011.04 1010.05 1009.03 1008.04 1007.14 1006.37 1005.80 1005.43 1005.29 1005.34 1005.57 1005.92 1006.34 1006.80 1007.25 1007.70 1008.12 1008.53 1008.95 1009.39 1009.86 1010.38 1010.93 1011.51 1012.10 1012.67 1013.21 1013.71 1014.15 1014.55 1014.91 1015.24 1015.56 1015.88 1016.21 1016.53 1016.87 1017.20 1017.52 1017.83 1018.12
1013.92 1013.07 1012.15 1011.16 1010.14 1009.12 1008.16 1007.30 1006.60 1006.07 1005.74 1005.58 1005.58 1005.70 1005.91 1006.18 1006.48 1006.80 1007.15 1007.52 1007.93 1008.39 1008.90 1009.47 1010.07 1010.70 1011.33 1011.93 1012.50 1013.02 1013.49 1013.91 1014.30 1014.67 1015.03 1015.40 1015.78 1016.16 1016.54 1016.91 1017.27 1017.59 1017.88
1014.86 1014.04 1013.14 1012.19 1011.18 1010.16 1009.16 1008.24 1007.42 1006.74 1006.20 1005.82 1005.57 1005.45 1005.42 1005.48 1005.60 1005.79 1006.05 1006.38 1006.78 1007.27 1007.84 1008.47 1009.15 1009.85 1010.54 1011.20 1011.82 1012.37 1012.87 1013.32 1013.74 1014.15 1014.56 1014.97 1015.40 1015.83 1016.26 1016.68 1017.06 1017.39 1017.68
1015.69 1014.90 1014.04 1013.12 1012.14 1011.13 1010.12 1009.14 1008.22 1007.40 1006.68 1006.09 1005.61 1005.24 1004.98 1004.82 1004.77 1004.82 1004.98 1005.27 1005.67 1006.20 1006.82 1007.53 1008.30 1009.08 1009.84 1010.57 1011.23 1011.83 1012.36 1012.85 1013.30 1013.73 1014.17 1014.63 1015.10 1015.58 1016.05 1016.50 1016.91 1017.27 1017.56
1016.45 1015.67 1014.85 1013.96 1013.01 1012.02 1011.01 1009.99 1009.01 1008.08 1007.22 1006.44 1005.77 1005.19 1004.72 1004.38 1004.16 1004.09 1004.17 1004.41 1004.81 1005.36 1006.03 1006.81 1007.64 1008.49 1009.33 1010.11 1010.82 1011.46 1012.02 1012.53 1012.99 1013.45 1013.91 1014.39 1014.89 1015.40 1015.90 1016.39 1016.83 1017.21 1017.52
1017.13 1016.37 1015.57 1014.71 1013.80 1012.84 1011.84 1010.82 1009.80 1008.81 1007.86 1006.96 1006.14 1005.42 1004.80 1004.30 1003.96 1003.79 1003.80 1003.99 1004.37 1004.93 1005.63 1006.45 1007.33 1008.23 1009.10 1009.93 1010.67 1011.32 1011.90 1012.41 1012.88 1013.33 1013.79 1014.28 1014.78 1015.31 1015.83 1016.34 1016.81 1017.22 1017.56
1017.75 1017.00 1016.22 1015.40 1014.52 1013.59 1012.63 1011.63 1010.63 1009.62 1008.64 1007.70 1006.81 1006.00 1005.29 1004.71 1004.29 1004.05 1003.99 1004.15 1004.50 1005.04 1005.74 1006.56 1007.45 1008.36 1009.25 1010.07 1010.81 1011.47 1012.03 1012.52 1012.97 1013.40 1013.84 1014.30 1014.79 1015.31 1015.84 1016.36 1016.85 1017.29 1017.67
1018.29 1017.56 1016.81 1016.01 1015.17 1014.30 1013.39 1012.45 1011.49 1010.53 1009.58 1008.65 1007.77 1006.96 1006.23 1005.63 1005.17 1004.89 1004.80 1004.91 1005.23 1005.73 1006.40 1007.18 1008.04 1008.92 1009.77 1010.57 1011.28 1011.90 1012.43 1012.88 1013.29 1013.67 1014.07 1014.48 1014.94 1015.43 1015.95 1016.47 1016.97 1017.44 1017.86
1018.75 1018.04 1017.31 1016.56 1015.77 1014.95 1014.11 1013.26 1012.39 1011.51 1010.65 1009.80 1008.99 1008.23 1007.55 1006.97 1006.53 1006.25 1006.14 1006.22 1006.50 1006.95 1007.55 1008.27 1009.06 1009.87 1010.66 1011.39 1012.04 1012.60 1013.07 1013.47 1013.81 1014.14 1014.47 1014.83 1015.23 1015.68 1016.17 1016.67 1017.18 1017.67 1018.12
1019.11 1018.43 1017.74 1017.03 1016.29 1015.55 1014.79 1014.03 1013.27 1012.51 1011.76 1011.04 1010.34 1009.69 1009.10 1008.60 1008.21 1007.96 1007.85 1007.92 1008.15 1008.54 1009.07 1009.70 1010.40 1011.12 1011.82 1012.47 1013.04 1013.53 1013.92 1014.25 1014.53 1014.79 1015.05 1015.35 1015.69 1016.08 1016.53 1017.01 1017.51 1018.01 1018.49
Thickness
5776 5776 5775 5774 5770 5766 5763 5760 5757 5754 5750 5745 5741 5737 5735 5735 5734 5733 5732 5731 5731 5730 5730 5729 5728 5727 5726 5725 5723 5721 5719 5718 5718 5716 5714 5715 5716 5717 5717 5718 5717 5717 5718
5769 5770 5770 5769 5767 5764 5760 5758 5756 5753 5749 5746 5742 5738 5735 5733 5731 5730 5729 5728 5727 5727 5726 5725 5724 5724 5723 5721 5720 5718 5716 5715 5714 5712 5708 5706 5708 5712 5714 5714 5714 5714 5714
5766 5766 5765 5764 5764 5762 5759 5757 5753 5750 5747 5744 5740 5735 5732 5730 5728 5726 5726 5726 5725 5725 5724 5723 5721 5720 5720 5717 5716 5715 5714 5711 5710 5710 5707 5702 5700 5703 5708 5709 5710 5710 5710
5764 5763 5762 5761 5761 5760 5758 5754 5750 5747 5744 5741 5737 5732 5728 5726 5725 5724 5723 5723 5723 5722 5722 5721 5719 5717 5716 5714 5713 5713 5711 5709 5706 5706 5706 5705 5703 5699 5699 5703 5705 5706 5707
5762 5760 5760 5759 5758 5756 5753 5750 5747 5744 5741 5738 5735 5732 5728 5726 5724 5723 5721 5720 5719 5719 5718 5717 5716 5714 5712 5711 5711 5709 5708 5706 5704 5703 5702 5701 5699 5699 5696 5695 5698 5701 5703
5759 5758 5757 5755 5753 5751 5749 5746 5742 5740 5738 5735 5732 5730 5726 5724 5721 5719 5717 5716 5716 5716 5715 5714 5713 5711 5710 5708 5708 5707 5706 5704 5703 5702 5701 5700 5698 5696 5695 5693 5693 5694 5698
5754 5752 5750 5749 5747 5746 5744 5742 5738 5735 5733 5731 5729 5727 5725 5722 5719 5718 5715 5714 5713 5713 5712 5712 5710 5709 5708 5707 5705 5704 5703 5702 5701 5701 5700 5699 5698 5698 5696 5693 5691 5690 5693
5750 5748 5747 5746 5744 5742 5740 5738 5735 5731 5729 5727 5725 5724 5722 5720 5718 5716 5715 5713 5712 5711 5711 5710 5708 5707 5705 5704 5702 5701 5700 5699 5699 5699 5698 5697 5697 5696 5695 5694 5690 5687 5688
5745 5745 5744 5742 5741 5739 5737 5735 5732 5728 5725 5723 5721 5719 5718 5716 5715 5713 5712 5711 5710 5709 5708 5707 5705 5704 5703 5701 5700 5698 5697 5696 5696 5696 5696 5695 5694 5694 5694 5693 5692 5688 5684
5740 5741 5740 5739 5738 5736 5734 5731 5729 5726 5723 5721 5718 5717 5714 5712 5710 5709 5707 5706 5706 5705 5704 5703 5702 5701 5699 5698 5696 5695 5693 5693 5692 5692 5692 5691 5691 5691 5691 5690 5689 5688 5686
5735 5736 5736 5735 5734 5732 5730 5726 5724 5721 5718 5716 5714 5712 5710 5708 5706 5705 5704 5703 5702 5701 5700 5699 5698 5697 5696 5694 5692 5691 5690 5688 5688 5688 5688 5688 5688 5687 5687 5686 5685 5683 5682
5730 5731 5731 5730 5728 5726 5725 5723 5720 5717 5714 5712 5709 5707 5705 5704 5702 5700 5699 5699 5698 5697 5697 5696 5695 5693 5692 5691 5689 5687 5686 5685 5684 5684 5684 5683 5683 5683 5682 5681 5680 5679 5679
5724 5724 5724 5724 5723 5721 5720 5718 5715 5713 5710 5707 5705 5702 5700 5698 5697 5696 5695 5694 5694 5693 5693 5692 5690 5689 5688 5687 5685 5684 5683 5682 5681 5680 5679 5679 5678 5678 5677 5677 5676 5675 5674
5717 5717 5717 5717 5717 5716 5714 5713 5711 5709 5706 5702 5700 5698 5695 5694 5693 5692 5690 5689 5689 5688 5688 5687 5687 5685 5684 5683 5681 5680 5679 5678 5677 5676 5676 5675 5675 5674 5673 5673 5671 5670 5669
5710 5711 5711 5711 5710 5710 5709 5708 5706 5704 5702 5698 5695 5693 5692 5691 5689 5688 5686 5686 5685 5684 5683 5683 5682 5680 5679 5679 5677 5675 5674 5673 5672 5672 5672 5672 5672 5671 5670 5669 5667 5666 5664
5704 5704 5705 5705 5704 5704 5703 5702 5701 5699 5697 5694 5691 5689 5687 5686 5685 5684 5682 5681 5680 5679 5678 5677 5676 5675 5675 5674 5672 5671 5670 5669 5668 5667 5667 5667 5667 5666 5666 5665 5664 5663 5660
5698 5698 5698 5698 5698 5698 5699 5697 5695 5694 5692 5689 5687 5684 5682 5681 5679 5679 5677 5676 5674 5673 5672 5671 5670 5669 5669 5668 5667 5666 5665 5664 5663 5662 5662 5662 5662 5661 5660 5660 5659 5658 5657
5692 5692 5691 5691 5692 5692 5692 5691 5689 5687 5685 5683 5681 5679 5677 5675 5674 5672 5671 5670 5668 5667 5665 5665 5664 5664 5664 5663 5662 5661 5660 5658 5658 5657 5656 5656 5656 5655 5654 5654 5653 5652 5652
5688 5687 5686 5685 5685 5685 5684 5683 5680 5679 5678 5676 5674 5673 5672 5671 5669 5667 5665 5663 5662 5660 5659 5659 5658 5658 5658 5658 5657 5655 5654 5653 5652 5651 5651 5650 5650 5649 5648 5648 5646 5646 5647
5681 5680 5680 5679 5678 5677 5676 5674 5672 5671 5670 5669 5668 5667 5666 5665 5663 5661 5660 5657 5655 5654 5653 5652 5652 5652 5652 5651 5650 5649 5648 5647 5646 5645 5644 5644 5643 5642 5642 5641 5640 5640 5640
5673 5673 5672 5671 5670 5669 5668 5667 5665 5665 5665 5664 5663 5661 5659 5657 5656 5655 5653 5651 5648 5647 5646 5645 5645 5645 5645 5645 5644 5643 5642 5641 5639 5638 5638 5637 5636 5635 5634 5634 5634 5633 5633
5665 5664 5662 5662 5662 5661 5660 5658 5657 5658 5657 5656 5655 5653 5651 5650 5648 5646 5645 5643 5641 5640 5638 5638 5638 5638 5638 5638 5638 5636 5636 5635 5633 5632 5631 5630 5630 5629 5628 5627 5627 5626 5626
5656 5655 5654 5653 5653 5653 5652 5650 5650 5650 5649 5648 5647 5646 5644 5642 5640 5638 5637 5635 5634 5633 5632 5631 5631 5631 5631 5631 5631 5630 5629 5627 5626 5625 5624 5624 5623 5623 5622 5621 5619 5618 5618
5646 5646 5645 5644 5644 5644 5645 5644 5644 5643 5642 5640 5638 5637 5636 5634 5632 5630 5630 5628 5626 5625 5624 5624 5623 5624 5623 5623 5623 5623 5621 5619 5618 5617 5616 5616 5615 5615 5614 5613 5612 5611 5610
5637 5637 5636 5636 5636 5636 5636 5636 5635 5634 5633 5631 5630 5628 5627 5625 5624 5622 5621 5620 5620 5618 5617 5617 5617 5616 5616 5616 5615 5614 5613 5612 5611 5609 5608 5608 5608 5608 5607 5606 5604 5603 5602
5629 5628 5627 5627 5628 5628 5627 5628 5628 5626 5624 5623 5622 5620 5619 5617 5616 5614 5612 5612 5611 5610 5610 5609 5609 5609 5609 5609 5608 5606 5604 5604 5603 5601 5601 5601 5600 5599 5599 5598 5597 5596 5595